[[{"header":{"parameterUnit":"m.s-1","parameterCategory":1,"la1":30.2991,"la2":30.254,"lo1":-89.0895,"lo2":-89.0444,"dy":0.0017,"dx":0.0017,"nx":28,"ny":28,"refTime":"2024-05-21T03:00:00:Z","depth":0,"parameterNumber":2,"parameterNumberName":"U-component_of_WINDS"},"data":[0,0,0,0,0,0,0,0,0,0,0,0,0,0,0,0,0,0,0,0,0,0,0,0,0,0,0,0,0,0,0,0,0,0,0,0,0,0,0,0,0,0,0,0,0,0,0,0,0,0,0,0,0,0,0,0,0,0,-2.6625,-2.6625,0,-2.6668,-2.6668,-2.6669,-2.6632,-2.6631,-2.6629,-2.6628,-2.6671,-2.6673,-2.6676,0,0,0,0,0,0,0,0,0,0,0,0,0,-2.6512,-2.6514,-2.6625,-2.6625,-2.6626,-2.6668,-2.6668,-2.6669,-2.6632,-2.6631,-2.6629,-2.6627,-2.667,-2.6673,-2.6676,0,0,0,0,0,0,0,0,0,0,0,0,0,-2.6558,-2.6515,-2.6625,-2.6613,-2.6612,-2.6667,-2.6668,-2.6669,-2.6633,-2.663,-2.6628,-2.6626,-2.6669,-2.6673,-2.6676,-2.6746,0,0,-2.6688,-2.669,0,0,0,0,0,0,0,0,-2.6556,-2.6562,-2.6614,-2.6614,-2.6613,-2.6642,-2.6644,-2.6695,-2.6633,-2.6625,-2.6628,-2.6625,-2.6663,-2.6667,-2.668,-2.6748,-2.6749,-2.6689,-2.6691,-2.6692,-2.6694,0,0,0,0,0,0,0,-2.6552,-2.656,-2.6642,-2.6615,-2.6614,-2.6605,-2.6609,-2.6653,-2.6656,-2.6626,-2.6623,-2.6629,-2.6662,-2.6677,-2.6681,-2.675,-2.6688,-2.6692,-2.6694,-2.6696,-2.6876,-2.6878,0,0,0,0,0,0,-2.655,-2.6558,-2.664,-2.6643,-2.6578,-2.6609,-2.6614,-2.6635,-2.6656,-2.6657,-2.663,-2.6627,-2.6671,-2.6677,-2.6682,-2.6764,-2.6692,-2.6696,-2.6698,-2.6874,-2.6877,-2.6879,0,0,0,0,0,0,-2.6548,-2.6558,-2.6639,-2.66,-2.6609,-2.6614,-2.6638,-2.6637,-2.6651,-2.6659,-2.666,-2.6645,-2.667,-2.6677,-2.673,-2.6765,-2.6698,-2.6701,-2.6871,-2.6874,-2.6878,-2.6929,0,0,0,0,0,0,-2.6545,-2.6558,-2.6584,-2.6601,-2.6612,-2.6686,-2.664,-2.664,-2.6658,-2.6654,-2.6673,-2.6674,-2.6668,-2.6725,-2.6734,-2.6769,-2.6704,-2.6867,-2.6872,-2.6877,-2.6924,-2.6934,-2.6943,0,0,0,0,0,-2.6541,-2.6597,-2.6585,-2.6596,-2.6645,-2.6688,-2.6694,-2.6687,-2.6661,-2.6688,-2.6693,-2.6673,-2.676,-2.673,-2.6741,-2.6778,-2.6865,-2.6871,-2.6876,-2.692,-2.6932,-2.6942,0,0,0,0,0,0,-2.6584,-2.6599,-2.6586,-2.6649,-2.6668,-2.6682,-2.6715,-2.67,-2.6727,-2.6721,-2.6712,-2.6716,-2.6772,-2.678,-2.6747,-2.6846,-2.6808,-2.6816,-2.6838,-2.685,-2.6859,-2.6855,-2.6707,0,0,0,0,0,-2.66,-2.6635,-2.6646,-2.67,-2.671,-2.6711,-2.673,-2.6723,-2.6742,-2.6749,-2.6758,-2.6777,-2.6809,-2.683,-2.6859,-2.6925,-2.6929,-2.6956,-2.6965,-2.6973,-2.698,-2.7015,-2.7027,-2.6898,-2.6898,-2.6898,0,0,-2.6635,-2.6647,-2.667,-2.6709,-2.6722,-2.6758,-2.6718,-2.6757,-2.6783,-2.6755,-2.6806,-2.6813,-2.6834,-2.6894,-2.6921,-2.6902,-2.7016,-2.698,-2.6986,-2.6989,-2.7022,-2.7034,-2.7045,-2.6901,-2.6901,-2.69,0,0,-2.6716,-2.6729,-2.6776,-2.679,-2.6812,-2.6812,-2.6823,-2.684,-2.6844,-2.6895,-2.6874,-2.6905,-2.696,-2.6975,-2.699,-2.7078,-2.7061,-2.7088,-2.7136,-2.717,-2.7181,-2.7189,-2.7221,-2.7232,-2.7095,-2.7095,-2.7095,0,-2.6757,-2.6809,-2.6801,-2.6842,-2.686,-2.6836,-2.6883,-2.6898,-2.6928,-2.694,-2.6919,-2.6988,-2.7,-2.7063,-2.7084,-2.7097,-2.711,-2.7086,-2.718,-2.7189,-2.7197,-2.7226,-2.7238,-2.7098,-2.7098,-2.7097,-2.7097,0,-2.6858,-2.6895,-2.693,-2.6959,-2.6981,-2.7025,-2.7023,-2.7046,-2.7038,-2.704,-2.7092,-2.7106,-2.7138,-2.7153,-2.7145,-2.7215,-2.7203,-2.7181,-2.7143,-2.7213,-2.724,-2.7251,-2.7103,-2.7101,-2.7101,-2.71,0,0,-2.6967,-2.6992,-2.7005,-2.7018,-2.704,-2.7068,-2.7111,-2.7142,-2.7162,-2.7183,-2.7219,-2.7266,-2.7246,-2.7263,-2.7256,-2.7287,-2.7355,-2.7261,-2.7262,-2.7278,-2.7433,-2.7449,-2.7463,-2.7344,-2.7346,-2.7348,-2.7431,0,-2.7049,-2.7123,-2.7117,-2.7187,-2.7221,-2.72,-2.7237,-2.7254,-2.7258,-2.7287,-2.7291,-2.7325,-2.7296,-2.7306,-2.7335,-2.7341,-2.7386,-2.7335,-2.7376,-2.7378,-2.7372,-2.7477,-2.7494,-2.7572,-2.7442,-2.7444,-2.7445,0,-2.7154,-2.718,-2.7253,-2.727,-2.7284,-2.7318,-2.7346,-2.7374,-2.7394,-2.7394,-2.7414,-2.7402,-2.7445,-2.7406,-2.7465,-2.743,-2.7447,-2.7452,-2.7455,-2.7459,-2.7416,-2.7483,-2.7597,-2.7609,-2.7462,-2.7461,-2.746,0,-2.7226,-2.7279,-2.7329,-2.7341,-2.7362,-2.7386,-2.7396,-2.7413,-2.7433,-2.7457,-2.747,-2.7499,-2.7515,-2.7538,-2.7535,-2.7507,-2.7595,-2.7556,-2.7596,-2.7596,-2.7615,-2.7614,-2.7733,-2.7627,-2.7627,-2.7626,-2.7626,0,-2.7318,-2.7364,-2.7362,-2.7393,-2.7444,-2.7437,-2.7487,-2.7494,-2.7509,-2.7542,-2.7525,-2.7555,-2.7549,-2.7579,-2.7577,-2.7626,-2.7633,-2.7635,-2.7633,-2.7636,-2.7636,-2.7647,-2.7641,-2.7629,-2.7629,-2.7628,-2.7628,0,-2.7407,-2.7407,-2.7461,-2.7477,-2.7482,-2.7518,-2.7532,-2.7561,-2.7563,-2.7604,-2.7613,-2.7617,-2.7652,-2.7651,-2.7691,-2.7689,-2.7749,-2.7742,-2.7743,-2.7741,-2.7781,-2.7777,-2.7911,-2.7928,-2.7811,-2.7812,-2.7813,0,-2.7465,-2.75,-2.7519,-2.754,-2.7551,-2.7584,-2.7604,-2.7598,-2.7619,-2.7644,-2.7671,-2.7704,-2.773,-2.7787,-2.7793,-2.7823,-2.7816,-2.7861,-2.7821,-2.7822,-2.7817,-2.7815,-2.7818,-2.7869,-2.787,-2.7871,-2.7872,0,-2.7569,-2.7568,-2.7597,-2.7626,-2.765,-2.7673,-2.7694,-2.7712,-2.7708,-2.7733,-2.7768,-2.7789,-2.7829,-2.7863,-2.7891,-2.7901,-2.7886,-2.7885,-2.7896,-2.7899,-2.7898,-2.7899,-2.7764,-2.7882,-2.7881,-2.788,-2.788,-2.7879,-2.7644,-2.7674,-2.7693,-2.7726,-2.7741,-2.7761,-2.7789,-2.7795,-2.7825,-2.7858,-2.7852,-2.7892,-2.791,-2.7948,-2.796,-2.7991,-2.7975,-2.7991,-2.7995,-2.7999,-2.8003,-2.7893,-2.7996,-2.7996,-2.7996,-2.7996,-2.7996,0,-2.7747,-2.7758,-2.7788,-2.7818,-2.7844,-2.7828,-2.7851,-2.7873,-2.7909,-2.7927,-2.7953,-2.7994,-2.8026,-2.8035,-2.8066,-2.8089,-2.8083,-2.8098,-2.8096,-2.8098,-2.8016,-2.8003,-2.8102,-2.8102,-2.8102,-2.8102,-2.8102,-2.8102,-2.7804,-2.7853,-2.7854,-2.7911,-2.7922,-2.7961,-2.7975,-2.7993,-2.8008,-2.8054,-2.8081,-2.8087,-2.8101,-2.8133,-2.8162,-2.8164,-2.8176,-2.8193,-2.8192,-2.8115,-2.8104,-2.8094,-2.8082,-2.8196,-2.8196,-2.8272,-2.8272,-2.8273]},{"header":{"parameterUnit":"m.s-1","parameterCategory":1,"la1":30.2991,"la2":30.254,"lo1":-89.0895,"lo2":-89.0444,"dy":0.0017,"dx":0.0017,"nx":28,"ny":28,"refTime":"2024-05-21T03:00:00:Z","depth":0,"parameterNumber":3,"parameterNumberName":"V-component_of_WINDS"},"data":[0,0,0,0,0,0,0,0,0,0,0,0,0,0,0,0,0,0,0,0,0,0,0,0,0,0,0,0,0,0,0,0,0,0,0,0,0,0,0,0,0,0,0,0,0,0,0,0,0,0,0,0,0,0,0,0,0,0,3.0002,3.0002,0,2.9979,2.9979,2.9979,2.9926,2.9924,2.9923,2.9922,2.9901,2.9901,2.9902,0,0,0,0,0,0,0,0,0,0,0,0,0,3.0002,3.0002,3.0002,3.0002,3.0002,2.9979,2.9979,2.9979,2.9926,2.9924,2.9923,2.9922,2.9901,2.9901,2.9902,0,0,0,0,0,0,0,0,0,0,0,0,0,2.9993,3.0002,3.0002,2.9972,2.997,2.9979,2.9979,2.9979,2.9926,2.9924,2.9923,2.9921,2.99,2.9901,2.9902,2.9939,0,0,2.9904,2.9904,0,0,0,0,0,0,0,0,2.9994,2.9993,2.9977,2.9975,2.9971,2.9954,2.9971,2.9965,2.9926,2.9943,2.9922,2.992,2.992,2.9919,2.9918,2.9938,2.9937,2.9904,2.9904,2.9905,2.9905,0,0,0,0,0,0,0,2.9994,2.9994,2.9993,2.9977,2.9973,2.9961,2.9958,2.997,2.9941,2.9941,2.9937,2.9935,2.9918,2.9918,2.9917,2.9937,2.9904,2.9904,2.9905,2.9905,2.9987,2.9988,0,0,0,0,0,0,2.9999,2.9995,2.9994,2.9992,2.9979,2.9962,2.9959,2.9961,2.9941,2.9936,2.9937,2.9933,2.9917,2.9917,2.9916,2.9958,2.9905,2.9905,2.9906,2.9985,2.9987,2.9989,0,0,0,0,0,0,2.9999,2.9999,2.9995,2.9993,2.9991,2.9964,2.9967,2.9961,2.9961,2.9937,2.9932,2.9941,2.9916,2.9915,2.9934,2.9957,2.9906,2.9906,2.9983,2.9986,2.9988,3.0044,0,0,0,0,0,0,2.9999,3.0,3.0013,2.9993,2.9991,3.0012,2.9968,2.9962,2.9962,2.9957,2.994,2.9936,2.9915,2.9933,2.9934,2.9957,2.9907,2.9981,2.9984,2.9987,3.004,3.0048,3.0055,0,0,0,0,0,3.0,3.003,3.0014,3.0014,3.0007,3.0014,3.0013,2.9987,2.9964,2.9978,2.9963,2.9937,2.9955,2.9935,2.9937,2.996,2.9979,2.9983,2.9987,3.0036,3.0046,3.0055,0,0,0,0,0,0,3.0054,3.0027,3.0009,3.0034,3.0026,3.0005,3.0021,2.9998,2.9998,2.9993,2.9961,2.9958,2.9981,2.9972,2.9951,2.9995,2.9963,2.9967,3.0,3.0009,3.0016,3.0018,2.9907,0,0,0,0,0,3.0069,3.0076,3.0052,3.0076,3.0073,3.0048,3.005,3.0031,3.0022,3.0019,3.0005,2.9998,3.0002,3.0005,3.0007,3.0038,3.0034,3.0055,3.0063,3.0069,3.0073,3.0089,3.0098,3.0002,3.0002,3.0002,0,0,3.01,3.0086,3.0092,3.0087,3.0079,3.0087,3.0046,3.0056,3.0062,3.002,3.0036,3.0026,3.0017,3.0041,3.0052,3.0035,3.0099,3.0074,3.0079,3.008,3.0094,3.0103,3.0111,3.0005,3.0004,3.0004,0,0,3.016,3.015,3.0169,3.0162,3.015,3.0133,3.0138,3.012,3.0111,3.0127,3.0096,3.0103,3.0111,3.0105,3.0103,3.0162,3.0138,3.0164,3.0203,3.0219,3.0227,3.0233,3.0254,3.0262,3.0168,3.0168,3.0168,0,3.02,3.021,3.0182,3.0194,3.0193,3.0156,3.0175,3.017,3.016,3.016,3.0141,3.015,3.0141,3.0164,3.0178,3.0178,3.0183,3.0165,3.0228,3.0234,3.024,3.0259,3.0267,3.0171,3.0171,3.0171,3.017,0,3.026,3.0268,3.0285,3.0275,3.0276,3.0292,3.0267,3.0271,3.0252,3.0238,3.0255,3.0242,3.0241,3.0246,3.0228,3.0266,3.0256,3.0233,3.02,3.0253,3.027,3.0278,3.0176,3.0175,3.0174,3.0173,0,0,3.0353,3.0328,3.0335,3.033,3.0315,3.032,3.0335,3.0334,3.0338,3.0333,3.0344,3.0352,3.0331,3.0329,3.031,3.0324,3.0371,3.0299,3.0298,3.0312,3.0413,3.043,3.0439,3.0355,3.0357,3.0358,3.0413,0,3.0409,3.0432,3.0407,3.0435,3.0442,3.0407,3.0419,3.0412,3.0399,3.0403,3.0389,3.0395,3.0366,3.0365,3.0377,3.0363,3.0391,3.0358,3.0366,3.0367,3.0369,3.0448,3.0466,3.0519,3.042,3.0421,3.0422,0,3.0477,3.0475,3.0503,3.0486,3.0488,3.05,3.0497,3.0502,3.0493,3.0482,3.048,3.0457,3.0471,3.0439,3.0458,3.0436,3.0438,3.0432,3.0433,3.0432,3.0397,3.0449,3.0535,3.0543,3.0433,3.0432,3.0431,0,3.0542,3.0546,3.0563,3.056,3.0541,3.055,3.0543,3.0532,3.0533,3.053,3.0531,3.0531,3.053,3.0531,3.0509,3.0488,3.053,3.0497,3.0522,3.0523,3.0532,3.0532,3.0619,3.0535,3.0534,3.0534,3.0534,0,3.0607,3.0626,3.0592,3.0602,3.0623,3.0595,3.0616,3.0605,3.0595,3.0604,3.0574,3.0583,3.0553,3.0559,3.0542,3.056,3.056,3.0552,3.0547,3.0555,3.0556,3.0555,3.055,3.0536,3.0536,3.0535,3.0535,0,3.0682,3.066,3.0677,3.0657,3.0653,3.0668,3.0652,3.0661,3.0646,3.0657,3.0658,3.0635,3.0641,3.0619,3.0621,3.0609,3.0636,3.0625,3.0639,3.0635,3.0662,3.0659,3.0751,3.0762,3.0671,3.0672,3.0673,0,3.0724,3.0738,3.072,3.0723,3.0717,3.0722,3.0723,3.0696,3.0698,3.0689,3.07,3.0703,3.0703,3.0714,3.0697,3.0699,3.0687,3.072,3.0687,3.0694,3.0687,3.0687,3.0688,3.0726,3.0727,3.0728,3.0729,0,3.0802,3.0791,3.0792,3.0791,3.0792,3.079,3.0785,3.079,3.0761,3.0765,3.077,3.077,3.0772,3.0775,3.0773,3.0766,3.0743,3.0739,3.0745,3.0752,3.076,3.0756,3.0656,3.0737,3.0736,3.0736,3.0735,3.0735,3.0862,3.0872,3.0861,3.0864,3.0858,3.0854,3.0862,3.0848,3.0851,3.085,3.0835,3.0842,3.0833,3.0828,3.0823,3.0829,3.0814,3.0823,3.0825,3.0827,3.0832,3.0759,3.0829,3.0829,3.0829,3.0828,3.0828,0,3.0937,3.0929,3.0932,3.0926,3.0929,3.0907,3.0901,3.0905,3.0912,3.0905,3.0906,3.0912,3.0915,3.0899,3.09,3.0908,3.0897,3.0909,3.0908,3.0907,3.0846,3.084,3.0917,3.0917,3.0917,3.0917,3.0917,3.0917,3.0977,3.0993,3.0981,3.0994,3.0985,3.0992,3.099,3.0987,3.0982,3.0989,3.0991,3.0981,3.0971,3.0971,3.0973,3.0968,3.097,3.0985,3.0977,3.092,3.0911,3.0903,3.0897,3.0985,3.0985,3.1037,3.1037,3.1038]}]]